Weather Roundup
Issued by NWS Chicago, IL

Home | Current Version | Previous Version | Graphics & Text | Print | Product List | Glossary On
Versions: 1 2 3 4 5 6 7 8 9 10 11 12 13 14 15 16 17 18 19 20 21 22 23 24 25 26 27 28 29 30 31 32 33 34 35 36 37 38 39 40 41 42 43 44 45 46 47 48 49 50
000
NZUS59 KLOT 301306
HRRLOT

CHICAGO AREA WEATHER ROUNDUP
NATIONAL WEATHER SERVICE CHICAGO/ROMEOVILLE IL
800 AM CDT WED JUL 30 2014

NOTE: "FAIR" INDICATES FEW OR NO CLOUDS BELOW 12,000 FEET WITH NO
SIGNIFICANT WEATHER AND/OR OBSTRUCTIONS TO VISIBILITY.

* THESE STATIONS ARE NOT UNDER NWS QUALITY CONTROL. THEY ALSO MAY NOT
  REPORT WEATHER SUCH AS PRECIPITATION OR FOG.

ILZ005-006-012>014-019>023-301400-
NORTHEAST ILLINOIS

CITY           SKY/WX    TMP DP  RH WIND       PRES   REMARKS
OHARE          MOSUNNY   65  54  67 NW7       30.03R
MIDWAY         MOSUNNY   68  57  68 W5        30.03R
AURORA         MOSUNNY   63  58  83 W7        30.05R
LANSING*       PTSUNNY   63  57  79 CALM      30.04R
JOLIET*        PTSUNNY   66  56  71 W3        30.06R
WAUKEGAN       PTSUNNY   62  57  83 NW6       30.03R
DUPAGE AIRPORT MOSUNNY   66  57  72 NW8       30.03S
WHEELING       MOSUNNY   65  58  78 NW5       30.05R
KANKAKEE*      PTSUNNY   65  62  91 W3        30.05S
MORRIS*          N/A     64  61  88 W3        30.05R
LEWIS AIRPORT* PTSUNNY   65  58  79 W5        30.04S
NORTHERLY IS     N/A     66  55  67 NW3         N/A
$$

WIZ051-052-058>065-066-070>072-301400-
SOUTHEAST WISCONSIN

CITY           SKY/WX    TMP DP  RH WIND       PRES   REMARKS
MILWAUKEE      PTSUNNY   62  56  80 NW9       30.04R
KENOSHA*       MOSUNNY   62  59  90 NW6       30.04R
RACINE*        MOSUNNY   62  58  86 NW7       30.05R
BURLINGTON     SUNNY     60  57  89 N6        30.04R
WEST BEND      PTSUNNY   61  55  82 N3        30.04R
$$

INZ001>003-010>013-019-020-301400-
NORTHWEST INDIANA

CITY           SKY/WX    TMP DP  RH WIND       PRES   REMARKS
GARY*          PTSUNNY   66  59  77 W7        30.04S
MICHIGAN CITY* NOT AVBL
RENSSELAER*    NOT AVBL
VALPARAISO     PTSUNNY   63  57  81 W5        30.04S
$$

LMZ740>746-301400-
SOUTHERN LAKE MICHIGAN

STATION/POSITION TIME  SKY/WX   TEMP WIND        PRES    VSBY
                                AIR  DIR/SP/G
                 (UTC)          (F)  (DEG/KT/KT) (MB)    (MI)
HARRISON CRIB    1300            64  280/  5/  6   N/A
BURNHAM HARBOR   1300            67  260/  6/  6   N/A
CALUMET HARBOR   1300            65  250/  2/  4 1015.7F
BURNS HARBOR     NOT AVBL
MICHIGAN CITY    1300            65  270/ 10/ 11   N/A
$$

ABBREVIATIONS USED IN REMARKS
   TC - TEMPERATURE IN CELSIUS
  WCI - WIND CHILL INDEX
   HX - HEAT INDEX
  VSB - VISIBILITY
$$


USA.gov is the U.S. government's official web portal to all federal, state and local government web resources and services.